Weather History for Morganton, NC

Change the Weather History Date:

Friday, March 15, 2013

  Actual Average (KHKY) Record (KHKY)
Temperature  
Mean Temperature 46 °F -  
Max Temperature 67 °F 61 °F 83 °F (1967)
Min Temperature 26 °F 37 °F 10 °F (1993)
Degree Days  
Heating Degree Days 18    
Moisture  
Dew Point 28 °F    
Average Humidity 54    
Maximum Humidity 84    
Minimum Humidity 26    
Precipitation  
Precipitation 0.00 in - - ()
Sea Level Pressure  
Sea Level Pressure 30.08 in    
Wind  
Wind Speed 3 mph (SSW)    
Max Wind Speed 14 mph    
Max Gust Speed 18 mph    
Visibility 10 miles    
Events      
Averages and records for this station are not official NWS values.
T = Trace of Precipitation, MM = Missing Value Source: NWS Daily Summary

Daily Weather History Graph

Daily Weather History Graph

Search for Another Location

Airport:

Trip Planner

Search our weather history database for the weather conditions in past years. The results will help you decide how hot, cold, wet, or windy it might be!

Date:

Astronomy

Mar. 15, 2013 Rise Set
Actual Time 7:36 AM EDT 7:34 PM EDT
Civil Twilight 7:11 AM EDT 7:59 PM EDT
Nautical Twilight 6:41 AM EDT 8:29 PM EDT
Astronomical Twilight 6:11 AM EDT 8:59 PM EDT
Moon 9:34 AM EDT (3/15) 11:37 PM EDT (3/15)
Length of Visible Light 12h 48m
Length of Day
11h 57m
Waxing Crescent, 15% of the Moon is Illuminated
Mar 15
Waxing Crescent
Mar 19
First Quarter
Mar 27
Full
Apr 3
Last Quarter
Apr 10
New

Hourly Weather History & Observations

Time (EDT) Temp. Windchill Dew Point Humidity Pressure Visibility Wind Dir Wind Speed Gust Speed Precip Events Conditions
12:15 AM 30.4 °F - 24.1 °F 77% 30.23 in 10.0 mi Calm Calm - N/A   Clear
12:35 AM 32.0 °F - 22.5 °F 68% 30.22 in 10.0 mi Calm Calm - N/A   Clear
12:55 AM 31.6 °F - 22.5 °F 69% 30.22 in 10.0 mi Calm Calm - N/A   Clear
1:15 AM 32.0 °F - 21.4 °F 65% 30.22 in 10.0 mi Calm Calm - N/A   Clear
1:35 AM 32.0 °F - 22.8 °F 69% 30.22 in 10.0 mi Calm Calm - N/A   Clear
1:55 AM 30.6 °F - 23.4 °F 75% 30.21 in 10.0 mi Calm Calm - N/A   Clear
2:15 AM 32.9 °F - 21.6 °F 63% 30.21 in 10.0 mi Calm Calm - N/A   Clear
2:35 AM 30.6 °F - 22.6 °F 72% 30.20 in 10.0 mi Calm Calm - N/A   Clear
2:55 AM 31.1 °F - 21.7 °F 68% 30.19 in 10.0 mi Calm Calm - N/A   Scattered Clouds
3:15 AM 29.8 °F - 22.1 °F 73% 30.18 in 10.0 mi Calm Calm - N/A   Scattered Clouds
3:35 AM 30.4 °F 26.9 °F 20.8 °F 68% 30.18 in 10.0 mi West 3.5 mph - N/A   Scattered Clouds
3:55 AM 27.9 °F - 21.6 °F 77% 30.18 in 10.0 mi Calm Calm - N/A   Clear
4:15 AM 29.8 °F 26.3 °F 21.0 °F 70% 30.18 in 10.0 mi West 3.5 mph - N/A   Clear
4:35 AM 30.4 °F 26.9 °F 21.6 °F 70% 30.17 in 10.0 mi WSW 3.5 mph - N/A   Clear
4:55 AM 27.9 °F 24.0 °F 21.4 °F 77% 30.17 in 10.0 mi WSW 3.5 mph - N/A   Clear
5:15 AM 30.4 °F 26.9 °F 20.7 °F 67% 30.16 in 10.0 mi SW 3.5 mph - N/A   Clear
5:35 AM 27.3 °F 23.4 °F 21.9 °F 80% 30.15 in 10.0 mi SE 3.5 mph - N/A   Clear
5:55 AM 26.6 °F - 22.5 °F 84% 30.16 in 10.0 mi Calm Calm - N/A   Clear
6:15 AM 30.2 °F 26.7 °F 20.7 °F 68% 30.17 in 10.0 mi NE 3.5 mph - N/A   Clear
6:35 AM 29.3 °F - 21.0 °F 71% 30.18 in 10.0 mi Calm Calm - N/A   Clear
6:55 AM 29.7 °F - 22.1 °F 73% 30.18 in 10.0 mi Calm Calm - N/A   Clear
7:15 AM 27.3 °F - 21.6 °F 79% 30.18 in 10.0 mi Calm Calm - N/A   Clear
7:35 AM 28.2 °F - 21.7 °F 77% 30.18 in 10.0 mi Calm Calm - N/A   Clear
7:55 AM 26.6 °F - 22.3 °F 84% 30.19 in 10.0 mi Calm Calm - N/A   Clear
8:15 AM 28.6 °F - 23.5 °F 81% 30.20 in 10.0 mi Calm Calm - N/A   Clear
8:35 AM 32.2 °F - 25.7 °F 77% 30.20 in 10.0 mi Calm Calm - N/A   Clear
8:55 AM 35.2 °F - 26.2 °F 70% 30.20 in 10.0 mi Calm Calm - N/A   Clear
9:15 AM 39.2 °F - 23.4 °F 53% 30.20 in 10.0 mi Calm Calm - N/A   Clear
9:35 AM 40.6 °F - 21.9 °F 47% 30.19 in 10.0 mi Calm Calm - N/A   Clear
9:55 AM 41.5 °F - 23.2 °F 48% 30.18 in 10.0 mi Calm Calm - N/A   Clear
10:15 AM 42.8 °F - 23.5 °F 47% 30.18 in 10.0 mi Calm Calm - N/A   Clear
10:35 AM 44.6 °F 42.2 °F 23.9 °F 44% 30.17 in 10.0 mi SW 4.6 mph - N/A   Clear
11:55 AM 53.8 °F - 27.5 °F 36% 30.13 in 10.0 mi South 9.2 mph 16.1 mph N/A   Clear
12:15 PM 54.5 °F - 27.0 °F 35% 30.12 in 10.0 mi SSW 9.2 mph 17.3 mph N/A   Clear
12:35 PM 55.9 °F - 28.4 °F 35% 30.12 in 10.0 mi SSW 10.4 mph 17.3 mph N/A   Clear
12:55 PM 56.5 °F - 28.6 °F 34% 30.10 in 10.0 mi SW 12.7 mph 16.1 mph N/A   Clear
1:15 PM 58.5 °F - 28.9 °F 33% 30.09 in 10.0 mi SW 13.8 mph 17.3 mph N/A   Clear
1:35 PM 58.6 °F - 29.1 °F 33% 30.07 in 10.0 mi SSW 9.2 mph 16.1 mph N/A   Clear
1:55 PM 60.1 °F - 29.7 °F 32% 30.06 in 10.0 mi SW 11.5 mph 16.1 mph N/A   Clear
2:15 PM 61.5 °F - 30.6 °F 31% 30.05 in 10.0 mi SW 11.5 mph 16.1 mph N/A   Clear
2:35 PM 61.9 °F - 30.9 °F 31% 30.04 in 10.0 mi SW 13.8 mph 18.4 mph N/A   Clear
2:55 PM 62.4 °F - 30.4 °F 30% 30.02 in 10.0 mi South 11.5 mph 18.4 mph N/A   Clear
3:15 PM 64.0 °F - 31.3 °F 29% 30.01 in 10.0 mi SSW 10.4 mph 18.4 mph N/A   Clear
3:35 PM 64.9 °F - 31.1 °F 28% 29.99 in 10.0 mi SSW 9.2 mph 17.3 mph N/A   Clear
3:55 PM 65.5 °F - 31.1 °F 28% 29.97 in 10.0 mi SSW 10.4 mph - N/A   Clear
4:15 PM 66.9 °F - 31.6 °F 27% 29.96 in 10.0 mi South 10.4 mph 16.1 mph N/A   Clear
4:35 PM 66.4 °F - 31.1 °F 27% 29.96 in 10.0 mi South 8.1 mph 18.4 mph N/A   Clear
4:55 PM 66.7 °F - 31.5 °F 27% 29.96 in 10.0 mi SSW 10.4 mph 16.1 mph N/A   Clear
5:15 PM 67.1 °F - 32.0 °F 27% 29.95 in 10.0 mi SSW 10.4 mph - N/A   Clear
5:35 PM 67.5 °F - 31.6 °F 26% 29.95 in 10.0 mi SSW 10.4 mph - N/A   Clear
5:55 PM 67.5 °F - 31.5 °F 26% 29.94 in 10.0 mi SSW 6.9 mph - N/A   Clear
6:15 PM 66.2 °F - 31.8 °F 28% 29.94 in 10.0 mi SSW 6.9 mph - N/A   Clear
6:35 PM 66.4 °F - 32.2 °F 28% 29.94 in 10.0 mi SSW 4.6 mph - N/A   Clear
6:55 PM 65.7 °F - 32.4 °F 29% 29.94 in 10.0 mi SSW 3.5 mph - N/A   Clear
7:15 PM 62.6 °F - 34.2 °F 35% 29.95 in 10.0 mi Calm Calm - N/A   Clear
7:35 PM 59.4 °F - 35.8 °F 41% 29.94 in 10.0 mi Calm Calm - N/A   Clear
7:55 PM 61.5 °F - 34.2 °F 36% 29.95 in 10.0 mi Calm Calm - N/A   Clear
8:15 PM 55.0 °F - 38.1 °F 53% 29.95 in 10.0 mi ESE 3.5 mph - N/A   Scattered Clouds
8:35 PM 51.3 °F - 39.6 °F 64% 29.95 in 10.0 mi ESE 3.5 mph - N/A   Scattered Clouds
8:55 PM 55.0 °F - 36.9 °F 50% 29.95 in 10.0 mi Calm Calm - N/A   Scattered Clouds
9:15 PM 49.5 °F - 37.8 °F 64% 29.95 in 10.0 mi Calm Calm - N/A   Mostly Cloudy
9:35 PM 50.5 °F - 37.0 °F 60% 29.95 in 10.0 mi Calm Calm - N/A   Mostly Cloudy
9:55 PM 49.8 °F - 37.4 °F 62% 29.95 in 10.0 mi Calm Calm - N/A   Scattered Clouds
10:15 PM 50.4 °F - 36.7 °F 59% 29.95 in 10.0 mi Calm Calm - N/A   Clear
10:35 PM 47.1 °F - 36.3 °F 66% 29.95 in 10.0 mi Calm Calm - N/A   Clear
10:55 PM 48.4 °F - 37.2 °F 65% 29.95 in 10.0 mi Calm Calm - N/A   Clear
11:15 PM 45.7 °F - 37.0 °F 72% 29.95 in 10.0 mi Calm Calm - N/A   Clear
11:35 PM 47.5 °F - 37.6 °F 69% 29.94 in 10.0 mi Calm Calm - N/A   Mostly Cloudy
11:55 PM 46.2 °F 45.0 °F 38.8 °F 75% 29.93 in 10.0 mi SSW 3.5 mph - N/A   Mostly Cloudy